Year,Month,Day,Hour,Minute,Value (Times are PST for temperature in C)
2012,07,07,00,00,14.20
2012,07,07,00,01,14.20
2012,07,07,00,02,14.20
2012,07,07,00,03,14.20
2012,07,07,00,04,14.20
2012,07,07,00,05,14.20
2012,07,07,00,06,14.20
2012,07,07,00,07,14.20
2012,07,07,00,08,14.20
2012,07,07,00,09,14.10
2012,07,07,00,10,14.10
2012,07,07,00,11,14.10
2012,07,07,00,12,14.10
2012,07,07,00,13,14.10
2012,07,07,00,14,14.10
2012,07,07,00,15,14.10
2012,07,07,00,16,14.00
2012,07,07,00,17,14.00
2012,07,07,00,18,14.00
2012,07,07,00,19,14.00
2012,07,07,00,20,14.00
2012,07,07,00,21,14.00
2012,07,07,00,22,14.00
2012,07,07,00,23,13.90
2012,07,07,00,24,13.90
2012,07,07,00,25,13.90
2012,07,07,00,26,13.90
2012,07,07,00,27,13.80
2012,07,07,00,28,13.80
2012,07,07,00,29,13.80
2012,07,07,00,30,13.80
2012,07,07,00,31,13.80
2012,07,07,00,32,13.80
2012,07,07,00,33,13.70
2012,07,07,00,34,13.70
2012,07,07,00,35,13.70
2012,07,07,00,36,13.70
2012,07,07,00,37,13.70
2012,07,07,00,38,13.70
2012,07,07,00,39,13.60
2012,07,07,00,40,13.60
2012,07,07,00,41,13.60
2012,07,07,00,42,13.60
2012,07,07,00,43,13.60
2012,07,07,00,44,13.50
2012,07,07,00,45,13.50
2012,07,07,00,46,13.50
2012,07,07,00,47,13.40
2012,07,07,00,48,13.40
2012,07,07,00,49,13.40
2012,07,07,00,50,13.40
2012,07,07,00,51,13.40
2012,07,07,00,52,13.40
2012,07,07,00,53,13.40
2012,07,07,00,54,13.30
2012,07,07,00,55,13.30
2012,07,07,00,56,13.30
2012,07,07,00,57,13.30
2012,07,07,00,58,13.30
2012,07,07,00,59,13.30
2012,07,07,01,00,13.20
2012,07,07,01,01,13.20
2012,07,07,01,02,13.20
2012,07,07,01,03,13.20
2012,07,07,01,04,13.20
2012,07,07,01,05,13.10
2012,07,07,01,06,13.10
2012,07,07,01,07,13.10
2012,07,07,01,08,13.10
2012,07,07,01,09,13.10
2012,07,07,01,10,13.10
2012,07,07,01,11,13.20
2012,07,07,01,12,13.20
2012,07,07,01,13,13.20
2012,07,07,01,14,13.20
2012,07,07,01,15,13.20
2012,07,07,01,16,13.20
2012,07,07,01,17,13.20
2012,07,07,01,18,13.20
2012,07,07,01,19,13.20
2012,07,07,01,20,13.20
2012,07,07,01,21,13.20
2012,07,07,01,22,13.20
2012,07,07,01,23,13.20
2012,07,07,01,24,13.10
2012,07,07,01,25,13.10
2012,07,07,01,26,13.10
2012,07,07,01,27,13.10
2012,07,07,01,28,13.10
2012,07,07,01,29,13.00
2012,07,07,01,30,13.00
2012,07,07,01,31,13.00
2012,07,07,01,32,13.00
2012,07,07,01,33,12.90
2012,07,07,01,34,12.90
2012,07,07,01,35,12.90
2012,07,07,01,36,12.90
2012,07,07,01,37,12.90
2012,07,07,01,38,12.90
2012,07,07,01,39,12.90
2012,07,07,01,40,12.90
2012,07,07,01,41,12.80
2012,07,07,01,42,12.80
2012,07,07,01,43,12.80
2012,07,07,01,44,12.80
2012,07,07,01,45,12.80
2012,07,07,01,46,12.80
2012,07,07,01,47,12.80
2012,07,07,01,48,12.80
2012,07,07,01,49,12.80
2012,07,07,01,50,12.80
2012,07,07,01,51,12.80
2012,07,07,01,52,12.80
2012,07,07,01,53,12.80
2012,07,07,01,54,12.80
2012,07,07,01,55,12.70
2012,07,07,01,56,12.70
2012,07,07,01,57,12.70
2012,07,07,01,58,12.70
2012,07,07,01,59,12.70
2012,07,07,02,00,12.70
2012,07,07,02,01,12.70
2012,07,07,02,02,12.70
2012,07,07,02,03,12.60
2012,07,07,02,04,12.60
2012,07,07,02,05,12.60
2012,07,07,02,06,12.60
2012,07,07,02,07,12.60
2012,07,07,02,08,12.60
2012,07,07,02,09,12.60
2012,07,07,02,10,12.50
2012,07,07,02,11,12.50
2012,07,07,02,12,12.50
2012,07,07,02,13,12.50
2012,07,07,02,14,12.50
2012,07,07,02,15,12.50
2012,07,07,02,16,12.40
2012,07,07,02,17,12.40
2012,07,07,02,18,12.40
2012,07,07,02,19,12.40
2012,07,07,02,20,12.40
2012,07,07,02,21,12.40
2012,07,07,02,22,12.40
2012,07,07,02,23,12.40
2012,07,07,02,24,12.30
2012,07,07,02,25,12.30
2012,07,07,02,26,12.30
2012,07,07,02,27,12.30
2012,07,07,02,28,12.30
2012,07,07,02,29,12.30
2012,07,07,02,30,12.30
2012,07,07,02,31,12.20
2012,07,07,02,32,12.20
2012,07,07,02,33,12.20
2012,07,07,02,34,12.20
2012,07,07,02,35,12.20
2012,07,07,02,36,12.10
2012,07,07,02,37,12.10
2012,07,07,02,38,12.10
2012,07,07,02,39,12.10
2012,07,07,02,40,12.00
2012,07,07,02,41,12.00
2012,07,07,02,42,11.90
2012,07,07,02,43,11.90
2012,07,07,02,44,11.90
2012,07,07,02,45,11.90
2012,07,07,02,46,11.90
2012,07,07,02,47,11.90
2012,07,07,02,48,11.80
2012,07,07,02,49,11.80
2012,07,07,02,50,11.80
2012,07,07,02,51,11.80
2012,07,07,02,52,11.80
2012,07,07,02,53,11.80
2012,07,07,02,54,11.80
2012,07,07,02,55,11.70
2012,07,07,02,56,11.70
2012,07,07,02,57,11.70
2012,07,07,02,58,11.70
2012,07,07,02,59,11.70
2012,07,07,03,00,11.60
2012,07,07,03,01,11.60
2012,07,07,03,02,11.60
2012,07,07,03,03,11.60
2012,07,07,03,06,11.50
2012,07,07,03,07,11.50
2012,07,07,03,08,11.50
2012,07,07,03,09,11.50
2012,07,07,03,10,11.40
2012,07,07,03,11,11.40
2012,07,07,03,12,11.40
2012,07,07,03,13,11.40
2012,07,07,03,14,11.40
2012,07,07,03,15,11.40
2012,07,07,03,16,11.40
2012,07,07,03,17,11.40
2012,07,07,03,18,11.40
2012,07,07,03,19,11.40
2012,07,07,03,20,11.40
2012,07,07,03,21,11.40
2012,07,07,03,22,11.40
2012,07,07,03,23,11.40
2012,07,07,03,24,11.40
2012,07,07,03,25,11.30
2012,07,07,03,26,11.30
2012,07,07,03,27,11.30
2012,07,07,03,28,11.30
2012,07,07,03,29,11.30
2012,07,07,03,30,11.30
2012,07,07,03,31,11.30
2012,07,07,03,32,11.30
2012,07,07,03,33,11.30
2012,07,07,03,34,11.20
2012,07,07,03,35,11.20
2012,07,07,03,36,11.20
2012,07,07,03,37,11.20
2012,07,07,03,38,11.20
2012,07,07,03,39,11.10
2012,07,07,03,40,11.10
2012,07,07,03,41,11.10
2012,07,07,03,42,11.10
2012,07,07,03,43,11.10
2012,07,07,03,44,11.00
2012,07,07,03,45,11.00
2012,07,07,03,46,11.00
2012,07,07,03,47,10.90
2012,07,07,03,48,10.90
2012,07,07,03,49,10.90
2012,07,07,03,50,10.90
2012,07,07,03,51,10.90
2012,07,07,03,52,10.90
2012,07,07,03,53,10.90
2012,07,07,03,54,10.90
2012,07,07,03,55,10.80
2012,07,07,03,56,10.80
2012,07,07,03,57,10.80
2012,07,07,03,58,10.80
2012,07,07,03,59,10.80
2012,07,07,04,00,10.80
2012,07,07,04,01,10.80
2012,07,07,04,02,10.80
2012,07,07,04,03,10.80
2012,07,07,04,04,10.80
2012,07,07,04,05,10.80
2012,07,07,04,06,10.80
2012,07,07,04,07,10.80
2012,07,07,04,08,10.80
2012,07,07,04,09,10.80
2012,07,07,04,10,10.80
2012,07,07,04,11,10.80
2012,07,07,04,12,10.80
2012,07,07,04,13,10.80
2012,07,07,04,14,10.80
2012,07,07,04,15,10.80
2012,07,07,04,16,10.80
2012,07,07,04,17,10.80
2012,07,07,04,18,10.80
2012,07,07,04,19,10.80
2012,07,07,04,20,10.80
2012,07,07,04,21,10.80
2012,07,07,04,22,10.80
2012,07,07,04,23,10.80
2012,07,07,04,24,10.70
2012,07,07,04,25,10.70
2012,07,07,04,26,10.70
2012,07,07,04,27,10.70
2012,07,07,04,28,10.70
2012,07,07,04,29,10.70
2012,07,07,04,30,10.60
2012,07,07,04,31,10.60
2012,07,07,04,32,10.60
2012,07,07,04,33,10.60
2012,07,07,04,34,10.60
2012,07,07,04,35,10.60
2012,07,07,04,36,10.60
2012,07,07,04,37,10.60
2012,07,07,04,38,10.50
2012,07,07,04,39,10.50
2012,07,07,04,40,10.50
2012,07,07,04,41,10.50
2012,07,07,04,42,10.50
2012,07,07,04,43,10.40
2012,07,07,04,44,10.40
2012,07,07,04,45,10.40
2012,07,07,04,46,10.40
2012,07,07,04,47,10.40
2012,07,07,04,48,10.40
2012,07,07,04,49,10.40
2012,07,07,04,50,10.40
2012,07,07,04,51,10.40
2012,07,07,04,52,10.40
2012,07,07,04,53,10.40
2012,07,07,04,54,10.40
2012,07,07,04,55,10.40
2012,07,07,04,56,10.40
2012,07,07,04,57,10.30
2012,07,07,04,58,10.30
2012,07,07,04,59,10.30
2012,07,07,05,00,10.30
2012,07,07,05,01,10.30
2012,07,07,05,02,10.30
2012,07,07,05,03,10.30
2012,07,07,05,04,10.30
2012,07,07,05,05,10.30
2012,07,07,05,06,10.30
2012,07,07,05,07,10.30
2012,07,07,05,08,10.30
2012,07,07,05,09,10.30
2012,07,07,05,10,10.30
2012,07,07,05,11,10.30
2012,07,07,05,12,10.30
2012,07,07,05,13,10.30
2012,07,07,05,14,10.30
2012,07,07,05,15,10.30
2012,07,07,05,16,10.30
2012,07,07,05,17,10.30
2012,07,07,05,18,10.30
2012,07,07,05,19,10.30
2012,07,07,05,20,10.30
2012,07,07,05,21,10.30
2012,07,07,05,22,10.30
2012,07,07,05,23,10.40
2012,07,07,05,24,10.30
2012,07,07,05,25,10.30
2012,07,07,05,26,10.30
2012,07,07,05,27,10.30
2012,07,07,05,28,10.30
2012,07,07,05,29,10.30
2012,07,07,05,30,10.30
2012,07,07,05,31,10.30
2012,07,07,05,32,10.30
2012,07,07,05,33,10.30
2012,07,07,05,34,10.30
2012,07,07,05,35,10.30
2012,07,07,05,36,10.30
2012,07,07,05,37,10.30
2012,07,07,05,38,10.30
2012,07,07,05,39,10.30
2012,07,07,05,40,10.30
2012,07,07,05,41,10.30
2012,07,07,05,42,10.30
2012,07,07,05,43,10.30
2012,07,07,05,44,10.30
2012,07,07,05,45,10.30
2012,07,07,05,46,10.20
2012,07,07,05,47,10.30
2012,07,07,05,48,10.30
2012,07,07,05,49,10.30
2012,07,07,05,50,10.30
2012,07,07,05,51,10.30
2012,07,07,05,52,10.30
2012,07,07,05,53,10.30
2012,07,07,05,54,10.30
2012,07,07,05,55,10.30
2012,07,07,05,56,10.30
2012,07,07,05,57,10.30
2012,07,07,05,58,10.40
2012,07,07,05,59,10.40
2012,07,07,06,00,10.40
2012,07,07,06,01,10.40
2012,07,07,06,02,10.40
2012,07,07,06,03,10.50
2012,07,07,06,04,10.50
2012,07,07,06,05,10.50
2012,07,07,06,06,10.50
2012,07,07,06,07,10.50
2012,07,07,06,08,10.50
2012,07,07,06,09,10.40
2012,07,07,06,10,10.50
2012,07,07,06,11,10.40
2012,07,07,06,12,10.40
2012,07,07,06,13,10.50
2012,07,07,06,14,10.50
2012,07,07,06,15,10.50
2012,07,07,06,16,10.50
2012,07,07,06,17,10.50
2012,07,07,06,18,10.50
2012,07,07,06,19,10.50
2012,07,07,06,20,10.50
2012,07,07,06,21,10.50
2012,07,07,06,22,10.50
2012,07,07,06,23,10.60
2012,07,07,06,24,10.60
2012,07,07,06,25,10.60
2012,07,07,06,26,10.60
2012,07,07,06,27,10.70
2012,07,07,06,28,10.70
2012,07,07,06,29,10.70
2012,07,07,06,30,10.80
2012,07,07,06,31,10.80
2012,07,07,06,32,10.80
2012,07,07,06,33,10.80
2012,07,07,06,34,10.80
2012,07,07,06,35,10.80
2012,07,07,06,36,10.90
2012,07,07,06,37,10.90
2012,07,07,06,38,10.90
2012,07,07,06,39,11.00
2012,07,07,06,40,11.00
2012,07,07,06,41,11.10
2012,07,07,06,42,11.10
2012,07,07,06,43,11.10
2012,07,07,06,44,11.10
2012,07,07,06,45,11.20
2012,07,07,06,46,11.20
2012,07,07,06,47,11.20
2012,07,07,06,48,11.20
2012,07,07,06,49,11.20
2012,07,07,06,50,11.20
2012,07,07,06,51,11.20
2012,07,07,06,52,11.20
2012,07,07,06,53,11.30
2012,07,07,06,54,11.30
2012,07,07,06,55,11.30
2012,07,07,06,56,11.30
2012,07,07,06,57,11.30
2012,07,07,06,58,11.40
2012,07,07,06,59,11.40
2012,07,07,07,00,11.40
2012,07,07,07,01,11.50
2012,07,07,07,02,11.50
2012,07,07,07,03,11.60
2012,07,07,07,04,11.60
2012,07,07,07,05,11.80
2012,07,07,07,06,11.90
2012,07,07,07,07,12.00
2012,07,07,07,08,12.10
2012,07,07,07,09,12.20
2012,07,07,07,10,12.20
2012,07,07,07,11,12.30
2012,07,07,07,12,12.40
2012,07,07,07,13,12.40
2012,07,07,07,14,12.50
2012,07,07,07,15,12.60
2012,07,07,07,16,12.70
2012,07,07,07,17,12.70
2012,07,07,07,18,12.80
2012,07,07,07,19,12.80
2012,07,07,07,20,12.90
2012,07,07,07,21,12.90
2012,07,07,07,22,13.00
2012,07,07,07,23,13.00
2012,07,07,07,24,13.10
2012,07,07,07,25,13.10
2012,07,07,07,26,13.20
2012,07,07,07,27,13.20
2012,07,07,07,28,13.20
2012,07,07,07,29,13.30
2012,07,07,07,30,13.30
2012,07,07,07,31,13.30
2012,07,07,07,32,13.30
2012,07,07,07,33,13.40
2012,07,07,07,34,13.40
2012,07,07,07,35,13.40
2012,07,07,07,36,13.40
2012,07,07,07,37,13.50
2012,07,07,07,38,13.50
2012,07,07,07,39,13.50
2012,07,07,07,40,13.60
2012,07,07,07,41,13.60
2012,07,07,07,42,13.60
2012,07,07,07,43,13.70
2012,07,07,07,44,13.70
2012,07,07,07,45,13.70
2012,07,07,07,46,13.70
2012,07,07,07,47,13.70
2012,07,07,07,48,13.80
2012,07,07,07,49,13.80
2012,07,07,07,50,13.80
2012,07,07,07,51,13.80
2012,07,07,07,52,13.90
2012,07,07,07,53,13.90
2012,07,07,07,54,13.90
2012,07,07,07,55,13.90
2012,07,07,07,56,13.90
2012,07,07,07,57,14.00
2012,07,07,07,58,14.00
2012,07,07,07,59,14.00
2012,07,07,08,00,14.10
2012,07,07,08,01,14.10
2012,07,07,08,02,14.10
2012,07,07,08,03,14.10
2012,07,07,08,04,14.10
2012,07,07,08,05,14.20
2012,07,07,08,06,14.20
2012,07,07,08,07,14.20
2012,07,07,08,08,14.20
2012,07,07,08,09,14.20
2012,07,07,08,10,14.30
2012,07,07,08,11,14.30
2012,07,07,08,12,14.30
2012,07,07,08,13,14.30
2012,07,07,08,14,14.40
2012,07,07,08,15,14.40
2012,07,07,08,16,14.40
2012,07,07,08,17,14.50
2012,07,07,08,18,14.50
2012,07,07,08,19,14.50
2012,07,07,08,20,14.60
2012,07,07,08,21,14.60
2012,07,07,08,22,14.60
2012,07,07,08,23,14.70
2012,07,07,08,24,14.70
2012,07,07,08,25,14.70
2012,07,07,08,26,14.80
2012,07,07,08,27,14.80
2012,07,07,08,28,14.90
2012,07,07,08,29,15.00
2012,07,07,08,30,15.00
2012,07,07,08,31,15.00
2012,07,07,08,32,15.00
2012,07,07,08,33,15.00
2012,07,07,08,34,15.10
2012,07,07,08,35,15.20
2012,07,07,08,36,15.30
2012,07,07,08,37,15.30
2012,07,07,08,38,15.40
2012,07,07,08,39,15.40
2012,07,07,08,40,15.40
2012,07,07,08,41,15.50
2012,07,07,08,42,15.50
2012,07,07,08,43,15.60
2012,07,07,08,44,15.60
2012,07,07,08,45,15.70
2012,07,07,08,46,15.70
2012,07,07,08,47,15.80
2012,07,07,08,48,15.80
2012,07,07,08,49,15.80
2012,07,07,08,50,15.90
2012,07,07,08,51,15.90
2012,07,07,08,52,15.90
2012,07,07,08,53,16.00
2012,07,07,08,54,16.00
2012,07,07,08,55,16.00
2012,07,07,08,56,16.10
2012,07,07,08,57,16.10
2012,07,07,08,58,16.10
2012,07,07,08,59,16.10
2012,07,07,09,00,16.10
2012,07,07,09,01,16.00
2012,07,07,09,02,16.00
2012,07,07,09,03,16.00
2012,07,07,09,04,16.00
2012,07,07,09,05,16.10
2012,07,07,09,06,16.10
2012,07,07,09,07,16.20
2012,07,07,09,08,16.20
2012,07,07,09,09,16.30
2012,07,07,09,10,16.30
2012,07,07,09,11,16.30
2012,07,07,09,12,16.40
2012,07,07,09,13,16.40
2012,07,07,09,14,16.40
2012,07,07,09,15,16.40
2012,07,07,09,16,16.40
2012,07,07,09,17,16.50
2012,07,07,09,18,16.50
2012,07,07,09,19,16.50
2012,07,07,09,20,16.50
2012,07,07,09,21,16.50
2012,07,07,09,22,16.50
2012,07,07,09,23,16.50
2012,07,07,09,24,16.50
2012,07,07,09,25,16.50
2012,07,07,09,26,16.50
2012,07,07,09,27,16.60
2012,07,07,09,28,16.50
2012,07,07,09,29,16.50
2012,07,07,09,30,16.60
2012,07,07,09,31,16.60
2012,07,07,09,32,16.60
2012,07,07,09,33,16.70
2012,07,07,09,34,16.70
2012,07,07,09,35,16.80
2012,07,07,09,36,16.80
2012,07,07,09,37,16.90
2012,07,07,09,38,16.90
2012,07,07,09,39,17.00
2012,07,07,09,40,17.00
2012,07,07,09,41,17.00
2012,07,07,09,42,16.90
2012,07,07,09,43,16.90
2012,07,07,09,44,16.90
2012,07,07,09,45,16.90
2012,07,07,09,46,17.00
2012,07,07,09,47,17.00
2012,07,07,09,48,17.00
2012,07,07,09,49,17.10
2012,07,07,09,50,17.10
2012,07,07,09,51,17.10
2012,07,07,09,52,17.10
2012,07,07,09,53,17.10
2012,07,07,09,54,17.10
2012,07,07,09,55,17.10
2012,07,07,09,56,17.20
2012,07,07,09,57,17.20
2012,07,07,09,58,17.20
2012,07,07,09,59,17.30
2012,07,07,10,00,17.20
2012,07,07,10,01,17.20
2012,07,07,10,02,17.20
2012,07,07,10,03,17.20
2012,07,07,10,04,17.20
2012,07,07,10,05,17.20
2012,07,07,10,06,17.20
2012,07,07,10,07,17.30
2012,07,07,10,08,17.40
2012,07,07,10,09,17.40
2012,07,07,10,10,17.40
2012,07,07,10,11,17.50
2012,07,07,10,12,17.50
2012,07,07,10,13,17.60
2012,07,07,10,14,17.60
2012,07,07,10,15,17.60
2012,07,07,10,16,17.70
2012,07,07,10,17,17.70
2012,07,07,10,18,17.80
2012,07,07,10,19,17.80
2012,07,07,10,20,17.80
2012,07,07,10,21,17.80
2012,07,07,10,22,17.80
2012,07,07,10,23,17.70
2012,07,07,10,24,17.70
2012,07,07,10,25,17.70
2012,07,07,10,26,17.70
2012,07,07,10,27,17.70
2012,07,07,10,28,17.70
2012,07,07,10,29,17.70
2012,07,07,10,30,17.80
2012,07,07,10,31,17.80
2012,07,07,10,32,17.80
2012,07,07,10,33,17.80
2012,07,07,10,34,17.80
2012,07,07,10,35,17.80
2012,07,07,10,36,17.80
2012,07,07,10,37,17.90
2012,07,07,10,38,17.90
2012,07,07,10,39,18.00
2012,07,07,10,40,18.00
2012,07,07,10,41,18.10
2012,07,07,10,42,18.20
2012,07,07,10,43,18.40
2012,07,07,10,44,18.50
2012,07,07,10,45,18.60
2012,07,07,10,46,18.70
2012,07,07,10,47,18.80
2012,07,07,10,48,18.90
2012,07,07,10,49,18.90
2012,07,07,10,50,18.90
2012,07,07,10,51,18.80
2012,07,07,10,52,18.90
2012,07,07,10,53,19.00
2012,07,07,10,54,19.10
2012,07,07,10,55,19.20
2012,07,07,10,56,19.30
2012,07,07,10,57,19.40
2012,07,07,10,58,19.50
2012,07,07,10,59,19.50
2012,07,07,11,00,19.50
2012,07,07,11,01,19.60
2012,07,07,11,02,19.60
2012,07,07,11,03,19.60
2012,07,07,11,04,19.60
2012,07,07,11,05,19.60
2012,07,07,11,06,19.60
2012,07,07,11,07,19.60
2012,07,07,11,08,19.60
2012,07,07,11,09,19.70
2012,07,07,11,10,19.80
2012,07,07,11,11,19.80
2012,07,07,11,12,19.80
2012,07,07,11,13,19.90
2012,07,07,11,14,19.90
2012,07,07,11,15,20.00
2012,07,07,11,16,20.10
2012,07,07,11,17,20.10
2012,07,07,11,18,20.30
2012,07,07,11,19,20.40
2012,07,07,11,20,20.40
2012,07,07,11,21,20.40
2012,07,07,11,22,20.50
2012,07,07,11,23,20.60
2012,07,07,11,24,20.60
2012,07,07,11,25,20.50
2012,07,07,11,26,20.50
2012,07,07,11,27,20.50
2012,07,07,11,28,20.60
2012,07,07,11,29,20.70
2012,07,07,11,30,20.80
2012,07,07,11,31,20.80
2012,07,07,11,32,20.90
2012,07,07,11,33,20.90
2012,07,07,11,34,21.00
2012,07,07,11,35,21.10
2012,07,07,11,36,21.10
2012,07,07,11,37,21.00
2012,07,07,11,38,21.00
2012,07,07,11,39,21.00
2012,07,07,11,40,20.90
2012,07,07,11,41,20.90
2012,07,07,11,42,20.90
2012,07,07,11,43,20.90
2012,07,07,11,44,21.00
2012,07,07,11,45,21.00
2012,07,07,11,46,21.00
2012,07,07,11,47,21.00
2012,07,07,11,48,21.10
2012,07,07,11,49,21.20
2012,07,07,11,50,21.30
2012,07,07,11,51,21.30
2012,07,07,11,52,21.20
2012,07,07,11,53,21.30
2012,07,07,11,54,21.40
2012,07,07,11,55,21.50
2012,07,07,11,56,21.60
2012,07,07,11,57,21.60
2012,07,07,11,58,21.70
2012,07,07,11,59,21.80
2012,07,07,12,00,21.80
2012,07,07,12,01,21.90
2012,07,07,12,02,22.00
2012,07,07,12,03,22.10
2012,07,07,12,04,22.20
2012,07,07,12,05,22.20
2012,07,07,12,06,22.20
2012,07,07,12,07,22.30
2012,07,07,12,08,22.40
2012,07,07,12,09,22.40
2012,07,07,12,10,22.50
2012,07,07,12,11,22.60
2012,07,07,12,12,22.50
2012,07,07,12,13,22.50
2012,07,07,12,14,22.50
2012,07,07,12,15,22.50
2012,07,07,12,16,22.60
2012,07,07,12,17,22.70
2012,07,07,12,18,22.70
2012,07,07,12,19,22.70
2012,07,07,12,20,22.90
2012,07,07,12,21,23.00
2012,07,07,12,22,23.10
2012,07,07,12,23,23.20
2012,07,07,12,24,23.30
2012,07,07,12,25,23.40
2012,07,07,12,26,23.30
2012,07,07,12,27,23.20
2012,07,07,12,28,23.10
2012,07,07,12,29,23.00
2012,07,07,12,30,23.00
2012,07,07,12,31,23.00
2012,07,07,12,32,23.00
2012,07,07,12,33,23.00
2012,07,07,12,34,23.10
2012,07,07,12,35,23.10
2012,07,07,12,36,23.20
2012,07,07,12,37,23.20
2012,07,07,12,38,23.20
2012,07,07,12,39,23.20
2012,07,07,12,40,23.10
2012,07,07,12,41,23.10
2012,07,07,12,42,23.10
2012,07,07,12,43,23.10
2012,07,07,12,44,23.10
2012,07,07,12,45,23.10
2012,07,07,12,46,23.10
2012,07,07,12,47,23.20
2012,07,07,12,48,23.20
2012,07,07,12,49,23.20
2012,07,07,12,50,23.20
2012,07,07,12,51,23.30
2012,07,07,12,52,23.20
2012,07,07,12,53,23.20
2012,07,07,12,54,23.20
2012,07,07,12,55,23.20
2012,07,07,12,56,23.20
2012,07,07,12,57,23.30
2012,07,07,12,58,23.30
2012,07,07,12,59,23.30
2012,07,07,13,00,23.20
2012,07,07,13,01,23.20
2012,07,07,13,02,23.20
2012,07,07,13,03,23.20
2012,07,07,13,04,23.20
2012,07,07,13,05,23.20
2012,07,07,13,06,23.20
2012,07,07,13,07,23.20
2012,07,07,13,08,23.20
2012,07,07,13,09,23.40
2012,07,07,13,10,23.40
2012,07,07,13,11,23.50
2012,07,07,13,12,23.70
2012,07,07,13,13,23.80
2012,07,07,13,14,24.00
2012,07,07,13,15,24.10
2012,07,07,13,16,24.10
2012,07,07,13,17,24.10
2012,07,07,13,18,24.10
2012,07,07,13,19,24.10
2012,07,07,13,20,23.90
2012,07,07,13,21,23.80
2012,07,07,13,22,23.70
2012,07,07,13,23,23.60
2012,07,07,13,24,23.60
2012,07,07,13,25,23.50
2012,07,07,13,26,23.50
2012,07,07,13,27,23.40
2012,07,07,13,28,23.40
2012,07,07,13,29,23.30
2012,07,07,13,30,23.20
2012,07,07,13,31,23.00
2012,07,07,13,32,22.80
2012,07,07,13,33,22.60
2012,07,07,13,34,22.50
2012,07,07,13,35,22.30
2012,07,07,13,36,22.30
2012,07,07,13,37,22.20
2012,07,07,13,38,22.20
2012,07,07,13,39,22.10
2012,07,07,13,40,22.10
2012,07,07,13,41,22.20
2012,07,07,13,42,22.20
2012,07,07,13,43,22.30
2012,07,07,13,44,22.40
2012,07,07,13,45,22.50
2012,07,07,13,46,22.60
2012,07,07,13,47,22.70
2012,07,07,13,48,22.80
2012,07,07,13,49,22.80
2012,07,07,13,50,22.90
2012,07,07,13,51,23.00
2012,07,07,13,52,23.00
2012,07,07,13,53,22.90
2012,07,07,13,54,22.90
2012,07,07,13,55,22.80
2012,07,07,13,56,22.80
2012,07,07,13,57,22.80
2012,07,07,13,58,22.70
2012,07,07,13,59,22.70
2012,07,07,14,00,22.70
2012,07,07,14,01,22.70
2012,07,07,14,02,22.80
2012,07,07,14,03,22.80
2012,07,07,14,04,22.80
2012,07,07,14,05,22.90
2012,07,07,14,06,22.90
2012,07,07,14,07,22.90
2012,07,07,14,08,22.90
2012,07,07,14,09,22.90
2012,07,07,14,10,22.90
2012,07,07,14,11,23.00
2012,07,07,14,12,23.00
2012,07,07,14,13,23.00
2012,07,07,14,14,23.10
2012,07,07,14,15,23.10
2012,07,07,14,16,23.10
2012,07,07,14,17,23.20
2012,07,07,14,18,23.20
2012,07,07,14,19,23.20
2012,07,07,14,20,23.30
2012,07,07,14,21,23.40
2012,07,07,14,22,23.70
2012,07,07,14,23,23.90
2012,07,07,14,24,24.10
2012,07,07,14,25,24.20
2012,07,07,14,26,24.20
2012,07,07,14,27,24.00
2012,07,07,14,28,23.90
2012,07,07,14,29,23.80
2012,07,07,14,30,23.80
2012,07,07,14,31,23.80
2012,07,07,14,32,23.80
2012,07,07,14,33,23.90
2012,07,07,14,34,24.00
2012,07,07,14,35,23.90
2012,07,07,14,36,23.90
2012,07,07,14,37,23.90
2012,07,07,14,38,23.90
2012,07,07,14,39,23.90
2012,07,07,14,40,23.90
2012,07,07,14,41,23.90
2012,07,07,14,42,23.90
2012,07,07,14,43,24.00
2012,07,07,14,44,24.00
2012,07,07,14,45,23.90
2012,07,07,14,46,23.90
2012,07,07,14,47,23.90
2012,07,07,14,48,24.00
2012,07,07,14,49,24.00
2012,07,07,14,50,24.10
2012,07,07,14,51,24.10
2012,07,07,14,52,24.20
2012,07,07,14,53,24.10
2012,07,07,14,54,24.10
2012,07,07,14,55,24.10
2012,07,07,14,56,24.00
2012,07,07,14,57,23.90
2012,07,07,14,58,23.90
2012,07,07,14,59,23.90
2012,07,07,15,00,23.80
2012,07,07,15,01,23.80
2012,07,07,15,02,23.80
2012,07,07,15,03,23.90
2012,07,07,15,04,24.10
2012,07,07,15,05,24.30
2012,07,07,15,06,24.40
2012,07,07,15,07,24.60
2012,07,07,15,08,24.70
2012,07,07,15,09,24.80
2012,07,07,15,10,24.90
2012,07,07,15,11,24.90
2012,07,07,15,12,24.90
2012,07,07,15,13,24.90
2012,07,07,15,14,24.90
2012,07,07,15,15,24.90
2012,07,07,15,16,24.90
2012,07,07,15,17,24.90
2012,07,07,15,18,24.90
2012,07,07,15,19,24.90
2012,07,07,15,20,24.90
2012,07,07,15,21,24.90
2012,07,07,15,22,24.80
2012,07,07,15,23,24.80
2012,07,07,15,24,24.70
2012,07,07,15,25,24.80
2012,07,07,15,26,24.70
2012,07,07,15,27,24.70
2012,07,07,15,28,24.70
2012,07,07,15,29,24.80
2012,07,07,15,30,24.90
2012,07,07,15,31,25.10
2012,07,07,15,32,25.20
2012,07,07,15,33,25.20
2012,07,07,15,34,25.10
2012,07,07,15,35,25.00
2012,07,07,15,36,24.90
2012,07,07,15,37,24.80
2012,07,07,15,38,24.70
2012,07,07,15,39,24.50
2012,07,07,15,40,24.60
2012,07,07,15,41,24.70
2012,07,07,15,42,24.80
2012,07,07,15,43,25.00
2012,07,07,15,44,25.20
2012,07,07,15,45,25.30
2012,07,07,15,46,25.40
2012,07,07,15,47,25.60
2012,07,07,15,48,25.60
2012,07,07,15,49,25.70
2012,07,07,15,50,25.90
2012,07,07,15,51,25.90
2012,07,07,15,52,26.10
2012,07,07,15,53,26.20
2012,07,07,15,54,26.40
2012,07,07,15,55,26.50
2012,07,07,15,56,26.60
2012,07,07,15,57,26.60
2012,07,07,15,58,26.70
2012,07,07,15,59,26.80
2012,07,07,16,00,26.70
2012,07,07,16,01,26.50
2012,07,07,16,02,26.20
2012,07,07,16,03,25.90
2012,07,07,16,04,25.60
2012,07,07,16,05,25.30
2012,07,07,16,06,25.00
2012,07,07,16,07,24.80
2012,07,07,16,08,24.60
2012,07,07,16,09,24.50
2012,07,07,16,10,24.30
2012,07,07,16,11,24.20
2012,07,07,16,12,24.10
2012,07,07,16,13,24.00
2012,07,07,16,14,23.90
2012,07,07,16,15,23.80
2012,07,07,16,16,23.80
2012,07,07,16,17,23.70
2012,07,07,16,18,23.70
2012,07,07,16,19,23.60
2012,07,07,16,20,23.60
2012,07,07,16,21,23.80
2012,07,07,16,22,24.00
2012,07,07,16,23,24.30
2012,07,07,16,24,24.50
2012,07,07,16,25,24.80
2012,07,07,16,26,24.90
2012,07,07,16,27,25.10
2012,07,07,16,28,25.20
2012,07,07,16,29,25.30
2012,07,07,16,30,25.40
2012,07,07,16,31,25.40
2012,07,07,16,32,25.40
2012,07,07,16,33,25.40
2012,07,07,16,34,25.40
2012,07,07,16,35,25.30
2012,07,07,16,36,25.30
2012,07,07,16,37,25.30
2012,07,07,16,38,25.30
2012,07,07,16,39,25.40
2012,07,07,16,40,25.30
2012,07,07,16,41,25.30
2012,07,07,16,42,25.30
2012,07,07,16,43,25.20
2012,07,07,16,44,25.20
2012,07,07,16,45,25.20
2012,07,07,16,46,25.30
2012,07,07,16,47,25.30
2012,07,07,16,48,25.30
2012,07,07,16,49,25.30
2012,07,07,16,50,25.30
2012,07,07,16,51,25.20
2012,07,07,16,52,25.10
2012,07,07,16,53,25.00
2012,07,07,16,54,24.90
2012,07,07,16,55,24.80
2012,07,07,16,56,24.70
2012,07,07,16,57,24.70
2012,07,07,16,58,24.60
2012,07,07,16,59,24.60
2012,07,07,17,00,24.40
2012,07,07,17,01,24.40
2012,07,07,17,02,24.30
2012,07,07,17,03,24.30
2012,07,07,17,04,24.20
2012,07,07,17,05,24.20
2012,07,07,17,06,24.10
2012,07,07,17,07,24.10
2012,07,07,17,08,24.00
2012,07,07,17,09,23.90
2012,07,07,17,10,23.90
2012,07,07,17,11,23.90
2012,07,07,17,12,23.90
2012,07,07,17,13,23.90
2012,07,07,17,14,23.90
2012,07,07,17,15,24.00
2012,07,07,17,16,24.10
2012,07,07,17,17,24.10
2012,07,07,17,18,24.20
2012,07,07,17,19,24.30
2012,07,07,17,20,24.30
2012,07,07,17,21,24.30